Location: Central Coast NSW, Australia
(33.2407°S, 151.4316°E)
Time: 16:19:59
(UTC+10:00)

Envisat - Pass Details

Date: 26 March 2019
Orbit: 764 x 766 km, 98.2° (Epoch: 23 April)

Event Time Altitude Azimuth Distance (km) Brightness Sun altitude
Rises 06:15:38 0° 60° (ENE) 3,229 7.3 -10.4°
Reaches altitude 10° 06:19:02 10° 84° (E) 2,313 7.1 -9.7°
Maximum altitude 06:21:35 14° 115° (ESE) 2,051 6.4 -9.1°
Drops below altitude 10° 06:24:10 10° 145° (SE) 2,327 6.1 -8.6°
Sets 06:27:35 0° 169° (S) 3,263 6.4 -7.9°
